Home   Weather   Escondido   Past weeks

Flag for USA Past Weather in Escondido, California, USA — Yesterday and Last 2 Weeks

Now
52 °F

Heavy rain. Fog.


Feels Like: 47 °F
Forecast: 51 / 58 °F
Wind: 17 mph from Southwest

Location: Ramona Airport

Current Time: Jan 19, 2017 at 9:26:53 am

Latest Report: Jan 19, 2017 at 8:37 am


Visibility: 1 mi

Pressure: 29.96 "Hg

Humidity: 100%

Dew Point: 52 °F

Location of EscondidoLocation

Past Weather in Escondido — Graph

°F

Escondido Temperature Yesterday

Maximum temperature yesterday: 60 °F (at 1:53 pm)
Minimum temperature yesterday: 33 °F (at 3:53 am)
Average temperature yesterday: 45 °F

High & Low Weather Summary for the Past Weeks

 TemperatureHumidityPressure
High78 °F (Jan 8, 11:53 am)100% (Jan 4, 9:53 pm)30.22 "Hg (Jan 4, 9:53 pm)
Low33 °F (Jan 18, 3:53 am)30% (Jan 8, 10:53 am)29.93 "Hg (Jan 12, 1:53 pm)
Average50 °F91%30.06 "Hg
* Reported Jan 4 8:53 am — Jan 19 8:37 am, Escondido, Weather by CustomWeather, © 2017

Note: Actual official high and low records may vary slightly from our data, if they occured in-between our weather recording intervals... More about our weather records

Advertising

Escondido Weather History for the Previous 24 Hours

Scroll right to see more
 ConditionsComfort  
Time TempWeatherWind HumidityBarometerVisibility
8:37 am
Thu, Jan 19
52 °FHeavy rain. Fog.17 mph100%29.96 "Hg1 mi
7:53 am51 °FRain. Fog.9 mph100%29.95 "Hg1 mi
7:22 am50 °FRain. Fog.10 mph100%29.96 "Hg1 mi
6:53 am50 °FLight rain. Fog.12 mph100%29.96 "Hg4 mi
6:36 am50 °FRain. Fog.15 mph100%29.97 "Hg2 mi
6:08 am50 °FLight rain. Fog.14 mph100%29.97 "Hg3 mi
5:28 am48 °FLight rain. Fog.6 mph100%29.98 "Hg2 mi
5:03 am48 °FLight rain. Fog.5 mph100%30.00 "Hg2 mi
4:05 am48 °FMostly cloudy.6 mph93%30.04 "Hg10 mi
3:53 am49 °FOvercast.No wind93%30.02 "Hg10 mi
2:53 am49 °FOvercast.10 mph86%30.03 "Hg10 mi
1:53 am48 °FOvercast.No wind89%29.98 "Hg10 mi
12:53 am49 °FPassing clouds.7 mph84%29.98 "Hg10 mi
11:53 pm
Wed, Jan 18
49 °FPartly cloudy.6 mph97%30.03 "Hg8 mi
10:53 pm49 °FOvercast.5 mph100%30.07 "Hg7 mi
9:53 pm49 °FOvercast.5 mph97%30.11 "Hg9 mi
8:53 pm50 °FMostly cloudy.No wind96%30.12 "Hg8 mi
7:53 pm49 °FPartly cloudy.3 mph97%30.14 "Hg10 mi
7:20 pm49 °FPassing clouds.3 mph97%30.15 "Hg9 mi
6:53 pm49 °FMostly cloudy.3 mph100%30.16 "Hg10 mi
6:29 pm50 °FMostly cloudy.7 mph96%30.15 "Hg10 mi
5:53 pm51 °FMostly cloudy.8 mph92%30.14 "Hg10 mi
4:53 pm51 °FOvercast.14 mph92%30.11 "Hg10 mi
3:53 pm54 °FSunny.10 mph86%30.09 "Hg10 mi
2:53 pm57 °FPassing clouds.12 mph72%30.08 "Hg10 mi
1:53 pm60 °FPassing clouds.5 mph65%30.06 "Hg10 mi
12:53 pm59 °FSunny.3 mph67%30.09 "Hg10 mi
11:53 am58 °FSunny.5 mph72%30.13 "Hg10 mi
10:53 am54 °FSunny.6 mph80%30.16 "Hg10 mi
9:53 am54 °FSunny.No wind69%30.18 "Hg10 mi
Weather by CustomWeather, © 2017

See weather overviewHow to use our weather pages